#timestamp,LO_Frequency,Hit,StdDev 
1711144815.9,286046985.4,N
1711144835.7,286046982.7,N
1711144855.6,286046979.3,N
1711144875.4,286046979.5,N
1711144895.2,286046979.3,N
1711144915.1,286046979.7,N
1711144916.0,286046979.7,N
1711144935.8,286046979.1,N
1711144955.7,286046977.7,N
1711144975.5,286046977.8,N
1711144995.3,286046978.7,N
1711145015.2,286046976.0,N
1711145035.0,286046976.0,N
1711145035.9,286046976.0,Y
1711145055.7,286046999.7,P
1711145075.6,286047000.8,N
1711145095.4,286046998.9,N
1711145115.3,286046998.3,N
1711145135.1,286046997.3,N
1711145155.8,286046995.1,N
1711145175.7,286046997.4,N
1711145195.5,286046998.6,N
1711145215.4,286046997.7,N
1711145235.2,286046996.1,N
1711145255.0,286046993.4,N
1711145255.9,286046993.4,N
1711145275.8,286046996.2,N
1711145295.6,286046997.6,N
1711145315.4,286046999.1,N
1711145335.3,286046997.1,N
1711145355.1,286046997.4,N
1711145375.9,286046994.9,N
1711145395.7,286046997.6,N
1711145415.5,286046996.7,N
1711145435.4,286046998.8,N
1711145455.2,286046995.0,N
1711145475.0,286046998.5,N
1711145475.9,286046998.5,N
1711145495.8,286046998.7,N
1711145515.6,286046998.9,N
1711145535.5,286046999.0,N
1711145555.3,286046998.8,N
1711145575.1,286047000.9,N
1711145595.9,286047000.0,N
1711145615.7,286047001.7,N
1711145635.5,286047002.1,N
1711145655.4,286047001.5,N
1711145675.2,286047000.4,N
1711145695.1,286047000.5,N
1711145696.0,286047000.5,N
1711145715.8,286047002.5,N
1711145735.6,286047001.4,N
1711145755.5,286047001.8,N
1711145775.3,286047001.7,N
1711145795.2,286047001.9,N
1711145815.9,286047002.3,N
1711145835.7,286047004.4,N
1711145855.6,286047002.0,N
1711145875.4,286047001.6,N
1711145895.2,286047003.6,N
1711145915.1,286047001.8,N
1711145916.0,286047001.8,N
1711145935.8,286046999.7,N
1711145955.7,286047002.3,N
1711145975.5,286047005.6,N
1711145995.3,286047002.7,N
1711146015.2,286047004.0,N
1711146035.0,286047003.7,N
1711146035.9,286047003.7,N
1711146055.8,286047002.8,N
1711146075.6,286047002.0,N
1711146095.4,286047004.2,N
1711146115.3,286047003.6,N
1711146135.1,286047004.6,Y
1711146155.9,286047003.2,P
1711146175.7,286047002.0,P
1711146195.5,286047000.5,N
1711146215.4,286047002.7,N
1711146235.2,286047004.2,Y
1711146255.0,286047001.6,P
1711146255.9,286047001.6,P
1711146275.8,286046998.9,P
1711146295.6,286046997.5,N
1711146315.5,286046997.3,N
1711146335.3,286046997.6,N
1711146355.1,286046997.8,N
1711146375.9,286046995.5,N
1711146395.7,286046997.2,N
1711146415.6,286046999.3,N
1711146435.4,286046997.4,N
1711146455.2,286046995.4,N
1711146475.1,286046995.5,N
1711146476.0,286046995.5,N
1711146495.8,286046996.6,N
1711146515.6,286046996.3,N
1711146535.5,286046995.8,N
1711146555.3,286046994.5,N
1711146575.2,286046994.5,N
1711146595.9,286046999.2,N
1711146615.7,286046997.5,N
1711146635.6,286046997.4,N
1711146655.4,286046997.8,N
1711146675.2,286047001.2,N
1711146695.1,286047005.6,N
1711146696.0,286047005.6,N
1711146715.8,286047005.2,N
1711146735.7,286047005.2,N
1711146755.5,286047005.3,N
1711146775.3,286047004.8,N
1711146795.2,286047006.0,N
1711146815.0,286047003.5,N
1711146815.9,286047003.5,N
1711146835.8,286046999.7,N
1711146855.6,286047000.3,N
1711146875.4,286047004.3,N
1711146895.3,286047002.9,N
1711146915.1,286047004.8,N
1711146935.9,286047003.5,N
1711146955.7,286047003.0,N
1711146975.5,286047007.4,N
1711146995.4,286047006.7,N
1711147015.2,286047009.0,N
1711147035.0,286047005.4,N
1711147035.9,286047005.4,N
1711147055.8,286047003.5,N
1711147075.6,286047004.3,N
1711147095.5,286047002.2,N
1711147115.3,286047001.7,N
1711147135.1,286047003.5,N
1711147155.9,286047003.8,N
1711147175.7,286047001.4,N
1711147195.6,286047002.9,N
1711147215.4,286047004.7,N
1711147235.2,286047007.0,Y
1711147255.1,286047003.3,P
1711147256.0,286047003.3,P
1711147275.8,286047005.0,P
1711147295.7,286047005.3,Y
1711147315.5,286047000.1,P
1711147335.3,286046999.7,N
1711147355.2,286047004.6,N
1711147375.9,286047002.6,N
1711147395.7,286047001.5,N
1711147415.6,286047004.2,N
1711147435.4,286047004.0,N
1711147455.3,286047004.9,N
1711147475.1,286047009.2,Y
1711147476.0,286047009.2,P
1711147495.8,286047007.1,N
1711147515.7,286047007.5,N
1711147535.5,286047003.3,N
1711147555.4,286047004.1,N
1711147575.2,286047005.8,N
1711147595.0,286047007.3,Y
1711147595.9,286047007.3,P
1711147615.8,286047001.6,N
1711147635.6,286047003.7,N
1711147655.4,286047003.7,N
1711147675.3,286047003.5,N
1711147695.1,286047003.1,N
1711147715.9,286047005.1,N
1711147735.7,286047004.7,N
1711147755.5,286047004.9,Y
1711147775.4,286047001.7,P
1711147795.2,286047001.4,N
1711147815.1,286047003.1,N
1711147816.0,286047003.1,N
1711147835.8,286047005.9,Y
1711147855.6,286047000.8,P
1711147875.5,286046998.6,N
1711147895.3,286047002.6,N
1711147915.1,286047000.9,N
1711147935.9,286047001.2,N
1711147955.7,286047000.0,N
1711147975.6,286047000.3,N
1711147995.4,286046999.4,N
1711148015.2,286046999.1,N
1711148035.1,286047001.2,N
1711148036.0,286047001.2,N
1711148055.8,286047001.2,N
1711148075.7,286046995.1,Y
1711148095.5,286046994.2,P
1711148115.3,286046994.3,N
1711148135.2,286046992.6,N
1711148155.9,286046990.3,Y
1711148175.7,286046998.0,P
1711148195.6,286046995.1,P
1711148215.4,286046995.9,P
1711148235.3,286046994.0,Y
1711148255.1,286046996.7,P
1711148256.0,286046996.7,P
1711148275.8,286046996.6,P
1711148295.7,286046997.8,Y
1711148315.5,286047000.6,P
1711148335.3,286047000.1,N
1711148355.2,286047001.0,N
1711148375.0,286047001.2,N
1711148375.9,286047001.2,N
1711148395.8,286047002.8,N
